Flag for U.S.A. Weather past 2 weeks in Gloucester, Massachusetts, U.S.A.

Now
48 °F

Clear.


Feels Like: 48 °F
Forecast: 54 / 68 °F
Wind: No wind

Location: Beverly Municipal Airport

Current Time: Sep 18, 2014 at 4:03:35 AM

Latest Report: Sep 18, 2014 at 2:53 AM


Visibility: 10 mi

Pressure: 29.91 "Hg

Humidity: 89%

Dew point: 45 °F

Location of GloucesterLocation

Historic Weather in Gloucester — Graph

°F

Gloucester temperature yesterday

Maximum temperature yesterday: 68 °F (at 2:53 PM)
Minimum temperature yesterday: 47 °F (at 6:53 AM)
Average temperature yesterday: 57 °F

Past Weeks' High & Low Weather Summary

 TemperatureHumidityPressure
High90 °F (Sep 6, 12:53 PM)97% (Sep 11, 2:53 AM)30.37 "Hg (Sep 11, 2:53 AM)
Low42 °F (Sep 15, 4:53 AM)38% (Sep 7, 1:53 PM)29.68 "Hg (Sep 3, 2:53 AM)
Average63 °F75%30.07 "Hg
* Reported Sep 3 2:53 AM — Sep 18 2:53 AM, Gloucester, Weather by CustomWeather, © 2014

Note: Actual official high and low records may vary slightly from our data, if they occured in-between our weather recording intervals... More about our weather records

Advertising

Gloucester weather history for previous 24 hours

 ConditionsComfort  
Time TempWeatherWind HumidityBarometerVisibility
2:53 AM
Sep 18
48 °FClear.No wind89%29.91 "Hg10 mi
1:53 AM48 °FClear.3 mph89%29.93 "Hg10 mi
12:53 AM48 °FClear.3 mph89%29.93 "Hg10 mi
11:53 PM
Sep 17
50 °FClear.No wind93%29.94 "Hg9 mi
10:53 PM52 °FClear.No wind89%29.94 "Hg8 mi
10:00 PM52 °FFog.No wind93%29.96 "Hg3 mi
8:53 PM56 °FPassing clouds.No wind87%29.96 "Hg10 mi
7:53 PM59 °FPassing clouds.No wind84%29.95 "Hg10 mi
6:53 PM59 °FScattered clouds.3 mph84%29.94 "Hg10 mi
5:53 PM62 °FScattered clouds.8 mph67%29.93 "Hg10 mi
4:53 PM64 °FScattered clouds.10 mph65%29.92 "Hg10 mi
3:53 PM67 °FScattered clouds.9 mph53%29.92 "Hg10 mi
2:53 PM68 °FScattered clouds.8 mph49%29.93 "Hg10 mi
1:53 PM67 °FPartly sunny.3 mph44%29.94 "Hg10 mi
12:53 PM67 °FPartly sunny.7 mph45%29.96 "Hg10 mi
11:53 AM65 °FPassing clouds.3 mph51%29.98 "Hg10 mi
10:53 AM66 °FSunny.3 mph56%29.98 "Hg10 mi
9:53 AM62 °FSunny.5 mph65%29.99 "Hg10 mi
8:53 AM57 °FSunny.3 mph81%30.00 "Hg10 mi
7:53 AM52 °FSunny.5 mph89%29.99 "Hg10 mi
6:53 AM47 °FClear.5 mph97%29.98 "Hg10 mi
5:53 AM49 °FClear.3 mph93%29.97 "Hg9 mi
4:53 AM48 °FFog.3 mph93%29.96 "Hg5 mi
Weather by CustomWeather, © 2014

See weather overviewHow to use our weather pages